Preview of NWS' New Version of Forecast
This preview is not operational and should not be used for support decisions.

Regional Weather Roundup (RWR)

Issued by National Weather Service (NWS)

                            
000
ASUS45 KCYS 210910
RWRWY 

WYOMING REGIONAL WEATHER ROUNDUP
NATIONAL WEATHER SERVICE CHEYENNE WY
200 AM MST THU FEB 21 2019

NOTE:  "FAIR" INDICATES FEW OR NO CLOUDS BELOW 12,000 FEET
WITH NO SIGNIFICANT WEATHER AND/OR OBSTRUCTIONS TO VISIBILITY.

WYZ001-211000-
...YELLOWSTONE NATIONAL PARK...
  
CITY           SKY/WX    TMP DP  RH WIND       PRES   REMARKS
LK YELLOWSTONE   N/A     -4  -9  79 CALM      29.64R                  
W YELLOWSTONE  NOT AVBL                                               

$$
WYZ002>013-054>058-071-098>099-211000-
...NORTHERN WYOMING...
  
CITY           SKY/WX    TMP DP  RH WIND       PRES   REMARKS
JACKSON        FLURRIES   1  -3  83 N5        29.68R WCI  -9          
CODY           FLURRIES  13  10  88 N5        29.79R WCI   5          
GREYBULL       CLOUDY    16  11  80 W9        29.82R WCI   4          
WORLAND        MOCLDY    14   9  80 NW3       29.80R                  
SHERIDAN       PTCLDY     7   4  87 N6        29.82R WCI  -3          
BUFFALO        PTCLDY    14   4  64 SW3       29.76R                  
GILLETTE       PTCLDY     2  -2  83 S6        29.80R WCI  -9          
HULETT         FAIR      10   5  79 MISG      29.82R                  
NEWCASTLE        N/A      5  -2  72 N5        29.83R WCI  -4          

$$
WYZ014>020-022>026-101>103-211000-
...CENTRAL WYOMING...
  
CITY           SKY/WX    TMP DP  RH WIND       PRES   REMARKS
BIG PINEY      CLOUDY    -6 -11  79 SE7       29.65S WCI -20          
PINEDALE       FLURRIES -15 -20  76 NW7       29.66S WCI -31          
DUBOIS         FAIR       1  -6  71 W8        29.61S WCI -12          
LANDER         PTCLDY    10  -4  53 W8        29.69R WCI  -2          
RIVERTON       PTCLDY     7   2  80 N7        29.69R WCI  -5          
CASPER         CLEAR      5   1  83 NW12      29.72S WCI -11          
DOUGLAS        CLEAR      7   3  84 CALM      29.77R                  

$$
WYZ021-027>030-104>119-211000-
...SOUTHERN WYOMING...
  
CITY           SKY/WX    TMP DP  RH WIND       PRES   REMARKS
EVANSTON       MOCLDY     7   3  84 E9        29.57R FOG     WCI  -7  
KEMMERER       NOT AVBL                                               
FORT BRIDGER   FOG        5   4  92 N7        29.62S VSB 1/4 WCI  -7  
ROCK SPRINGS   CLOUDY     7  -1  70 E5        29.62S WCI  -2          
DIXON          CLOUDY    13   6  76 NE5       29.67F WCI   5          
RAWLINS        PTCLDY     8   2  76 CALM      29.66S                  
SARATOGA       CLOUDY    12   3  67 S9        29.64F WCI   0          
LARAMIE        MOCLDY     3  -3  76 SE8       29.64S WCI -10          
CHEYENNE       PTCLDY     9   1  70 W8        29.72R WCI  -3          
TORRINGTON     CLEAR     14   6  70 S5        29.80R WCI   6          
PINE BLUFFS    FAIR       1  -4  78 MISG      29.77S                  

$$
  

000
ASUS45 KCYS 210910
RWRWY 

WYOMING REGIONAL WEATHER ROUNDUP
NATIONAL WEATHER SERVICE CHEYENNE WY
200 AM MST THU FEB 21 2019

NOTE:  "FAIR" INDICATES FEW OR NO CLOUDS BELOW 12,000 FEET
WITH NO SIGNIFICANT WEATHER AND/OR OBSTRUCTIONS TO VISIBILITY.

WYZ001-211000-
YELLOWSTONE NATIONAL PARK
  
CITY           SKY/WX    TMP DP  RH WIND       PRES   REMARKS
LK YELLOWSTONE   N/A     -4  -9  79 CALM      29.64R                  
W YELLOWSTONE  NOT AVBL                                               

$$
WYZ002>013-054>058-071-098>099-211000-
NORTHERN WYOMING
  
CITY           SKY/WX    TMP DP  RH WIND       PRES   REMARKS
JACKSON        FLURRIES   1  -3  83 N5        29.68R WCI  -9          
CODY           FLURRIES  13  10  88 N5        29.79R WCI   5          
GREYBULL       CLOUDY    16  11  80 W9        29.82R WCI   4          
WORLAND        MOCLDY    14   9  80 NW3       29.80R                  
SHERIDAN       FAIR       7   4  87 N6        29.82R WCI  -3          
BUFFALO        FAIR      14   4  64 SW3       29.76R                  
GILLETTE       FAIR       2  -2  83 S6        29.80R WCI  -9          
HULETT         FAIR      10   5  79 MISG      29.82                   
NEWCASTLE        N/A      5  -2  72 N5        29.83  WCI  -4          

$$
WYZ014>020-022>026-101>103-211000-
CENTRAL WYOMING
  
CITY           SKY/WX    TMP DP  RH WIND       PRES   REMARKS
BIG PINEY      CLOUDY    -6 -11  79 SE7       29.65S WCI -20          
PINEDALE       FLURRIES -15 -20  76 NW7       29.66  WCI -31          
DUBOIS         FAIR       1  -6  71 W8        29.61  WCI -12          
LANDER         FAIR      10  -4  53 W8        29.69R WCI  -2          
RIVERTON       FAIR       7   2  80 N7        29.69R WCI  -5          
CASPER         FAIR       5   1  83 NW12      29.72S WCI -11          
DOUGLAS        FAIR       7   3  84 CALM      29.77R                  

$$
WYZ021-027>030-104>119-211000-
SOUTHERN WYOMING
  
CITY           SKY/WX    TMP DP  RH WIND       PRES   REMARKS
EVANSTON       MOCLDY     7   3  84 E9        29.57R FOG     WCI  -7  
ROCK SPRINGS   CLOUDY     7  -1  70 E5        29.62S WCI  -2          
DIXON          CLOUDY    13   6  76 NE5       29.67F WCI   5          
RAWLINS        FAIR       8   2  76 CALM      29.66S                  
SARATOGA       CLOUDY    12   3  67 S9        29.64F WCI   0          
LARAMIE        MOCLDY     3  -3  76 SE8       29.64S WCI -10          
CHEYENNE       FAIR       9   1  70 W8        29.72R WCI  -3          
TORRINGTON     FAIR      14   6  70 S5        29.80R WCI   6          
PINE BLUFFS    FAIR       1  -4  78 MISG      29.77S                  

$$